FW1340 Weather Reports


time (UTC)temp
C
wind
direction
speed
KPH
gust
KPH
rain 1hr
cm
rain 24hr
cm
rain mn
cm
humidity
%
barometer
mb
20260831114535 12 294 0.0 0.0 0.00 0.00 0.00 83 1010.8
20260831113032 13 13 0.0 0.0 0.00 0.00 0.00 80 1010.7
20260831111539 13 13 0.0 0.0 0.00 0.00 0.00 79 1010.7
20260831110027 13 13 0.0 0.0 0.00 0.00 0.00 80 1010.7
20260831104530 13 13 0.0 0.0 0.00 0.00 0.00 81 1010.8
20260831103024 13 13 0.0 0.0 0.00 0.00 0.00 82 1010.6
20260831101524 13 13 0.0 0.0 0.00 0.00 0.00 82 1010.6
20260831100021 13 19 0.0 0.0 0.00 0.00 0.00 82 1010.6
20260831094525 14 17 0.0 0.0 0.00 0.00 0.00 80 1010.4
20260831093017 14 12 0.0 0.0 0.00 0.00 0.00 80 1010.4
20260831091517 15 9 0.0 0.0 0.00 0.00 0.00 80 1010.6
20260831090016 15 116 0.0 0.0 0.00 0.00 0.00 79 1010.4
20260831084525 15 116 0.0 0.0 0.00 0.00 0.00 79 1010.5
20260831083009 15 143 0.0 0.0 0.00 0.00 0.00 76 1010.5
20260831081516 15 143 0.0 0.0 0.00 0.00 0.00 77 1010.7
20260831080005 16 143 0.0 0.0 0.00 0.00 0.00 76 1010.7
20260831074517 16 142 0.0 0.0 0.00 0.00 0.00 76 1010.8
20260831073001 16 142 0.0 0.0 0.00 0.00 0.00 77 1010.7
20260831071601 16 190 0.0 0.0 0.00 0.00 0.00 75 1010.7
20260831070058 16 93 0.0 0.0 0.00 0.00 0.00 74 1010.7
20260831064607 17 96 0.0 0.0 0.00 0.00 0.00 71 1010.7
20260831063057 17 272 0.0 0.0 0.00 0.00 0.00 71 1010.6
20260831061556 18 261 0.0 0.0 0.00 0.00 0.00 71 1010.6
20260831060104 18 268 0.0 0.0 0.00 0.00 0.00 70 1010.5
20260831054554 18 270 0.0 0.0 0.00 0.00 0.00 69 1010.6
20260831053054 18 260 0.0 0.0 0.00 0.00 0.00 68 1010.6
20260831051554 19 257 0.0 0.0 0.00 0.00 0.00 67 1010.6
20260831050126 20 265 0.0 0.0 0.00 0.00 0.00 66 1010.6
20260831044553 20 264 0.0 0.0 0.00 0.00 0.00 63 1010.6
20260831043051 21 257 0.0 0.0 0.00 0.00 0.00 61 1010.5
20260831041552 21 264 0.0 0.0 0.00 0.00 0.00 59 1010.5
20260831040054 22 269 0.0 0.0 0.00 0.00 0.00 57 1010.3
20260831034551 22 263 0.0 0.0 0.00 0.00 0.00 54 1010.3
20260831033050 23 258 0.0 0.0 0.00 0.00 0.00 51 1010.1
20260831031553 24 271 0.0 0.0 0.00 0.00 0.00 47 1010.0
20260831030054 25 250 0.0 0.0 0.00 0.00 0.00 45 1009.8
20260831024548 26 267 0.0 0.0 0.00 0.00 0.00 44 1009.7
20260831023047 27 263 0.0 0.0 0.00 0.00 0.00 42 1009.7
20260831021547 28 253 0.0 0.0 0.00 0.00 0.00 41 1009.6
20260831020046 29 281 0.0 0.0 0.00 0.00 0.00 38 1009.5
20260831014550 30 294 0.0 0.0 0.00 0.00 0.00 37 1009.5
20260831013045 30 276 0.0 0.0 0.00 0.00 0.00 35 1009.4
20260831011544 31 265 0.0 0.0 0.00 0.00 0.00 34 1009.5
20260831010043 31 281 0.0 0.0 0.00 0.00 0.00 33 1009.6
20260831004546 31 273 0.0 0.0 0.00 0.00 0.00 33 1009.6
20260831003041 31 268 0.0 0.0 0.00 0.00 0.00 32 1009.6
20260831001541 31 266 0.0 0.0 0.00 0.00 0.00 32 1009.7
20260831000053 31 256 0.0 0.0 0.00 0.00 0.00 33 1009.8
20260830234546 31 265 0.0 0.0 0.00 0.00 0.00 34 1009.9
20260830233053 31 257 0.0 0.0 0.00 0.00 0.00 36 1010.1
20260830231535 31 301 0.0 0.0 0.00 0.00 0.00 36 1010.1
20260830230032 31 252 0.0 0.0 0.00 0.00 0.00 34 1010.3
20260830224529 31 264 0.0 0.0 0.00 0.00 0.00 34 1010.5
20260830223028 31 264 0.0 0.0 0.00 0.00 0.00 36 1010.7
20260830221526 31 217 0.0 0.0 0.00 0.00 0.00 37 1010.8
20260830220030 30 302 0.0 0.0 0.00 0.00 0.00 39 1011.1
20260830214519 30 267 0.0 0.0 0.00 0.00 0.00 39 1011.4
20260830213021 30 293 0.0 0.0 0.00 0.00 0.00 41 1011.5
20260830211513 29 248 0.0 0.0 0.00 0.00 0.00 42 1011.8
20260830210019 28 265 0.0 0.0 0.00 0.00 0.00 43 1011.9
20260830204506 28 275 0.0 0.0 0.00 0.00 0.00 45 1012.0
20260830203002 27 237 0.0 0.0 0.00 0.00 0.00 46 1012.1
20260830201618 27 262 0.0 0.0 0.00 0.00 0.00 48 1012.2
20260830194551 26 236 0.0 0.0 0.00 0.00 0.00 51 1012.7
20260830193047 25 294 0.0 0.0 0.00 0.00 0.00 52 1012.8
20260830191615 25 221 0.0 0.0 0.00 0.00 0.00 55 1012.9
20260830190053 24 225 0.0 0.0 0.00 0.00 0.00 56 1013.2
20260830184538 23 337 0.0 0.0 0.00 0.00 0.00 58 1013.3
20260830183033 23 286 0.0 0.0 0.00 0.00 0.00 58 1013.4
20260830181530 22 309 0.0 0.0 0.00 0.00 0.00 60 1013.5
20260830180035 22 279 0.0 0.0 0.00 0.00 0.00 62 1013.6
20260830174528 21 227 0.0 0.0 0.00 0.00 0.00 63 1013.6
20260830173019 21 255 0.0 0.0 0.00 0.00 0.00 62 1013.6
20260830171515 21 277 0.0 0.0 0.00 0.00 0.00 64 1013.6
20260830170012 20 319 0.0 0.0 0.00 0.00 0.00 66 1013.5
20260830164510 20 305 0.0 0.0 0.00 0.00 0.00 68 1013.6
20260830163018 19 306 0.0 0.0 0.00 0.00 0.00 70 1013.5
20260830161501 18 268 0.0 0.0 0.00 0.00 0.00 71 1013.5
20260830160100 18 267 0.0 0.0 0.00 0.00 0.00 70 1013.6
20260830154602 17 271 0.0 0.0 0.00 0.00 0.00 71 1013.8
20260830153049 17 288 0.0 0.0 0.00 0.00 0.00 72 1013.6
20260830151545 16 315 0.0 0.0 0.00 0.00 0.00 76 1013.6
20260830150044 14 42 0.0 0.0 0.00 0.00 0.00 82 1013.5
20260830144543 13 344 0.0 0.0 0.00 0.00 0.00 84 1013.4
20260830143034 12 325 0.0 0.0 0.00 0.00 0.00 86 1013.4
20260830141530 11 46 0.0 0.0 0.00 0.00 0.00 87 1013.2
20260830140026 11 46 0.0 0.0 0.00 0.00 0.00 87 1012.8
20260830134523 11 46 0.0 0.0 0.00 0.00 0.00 87 1012.6
20260830133022 10 46 0.0 0.0 0.00 0.00 0.00 86 1012.6
20260830131539 11 84 0.0 0.0 0.00 0.00 0.00 85 1012.5
20260830130018 11 126 0.0 0.0 0.00 0.00 0.00 85 1012.4
20260830124515 11 126 0.0 0.0 0.00 0.00 0.00 85 1012.4
20260830123014 11 99 0.0 0.0 0.00 0.00 0.00 84 1012.4
20260830121512 11 99 0.0 0.0 0.00 0.00 0.00 84 1012.1
20260830120012 11 65 0.0 0.0 0.00 0.00 0.00 85 1012.2